Location: Central Falls
(41.8900°N, 71.3929°W)
Time: 07:49:28
(UTC+00:00)

Tiros 1 despin weight - Pass Details

Date: 10 December 2023
Orbit: 581 x 624 km, 48.2° (Epoch: 29 February)

Event Time Altitude Azimuth Distance (km) Brightness Sun altitude
Rises 00:47:50 0° 293° (WNW) 2,801 ? -38.9°
Enters shadow 00:49:45 - 299° (WNW) 2,071 ? -39.2°
Reaches altitude 10° 00:50:13 10° 301° (WNW) 1,898 - -39.3°
Maximum altitude 00:54:20 42° 12° (NNE) 836 - -40.1°
Drops below altitude 10° 00:58:28 10° 85° (E) 1,896 - -40.8°
Sets 01:00:51 0° 92° (E) 2,798 - -41.3°
